星链-35312(STARLINK-35312)

导读 | 豆包AI

STARLINK-35312是美国太空探索技术公司(SpaceX)星链星座的成员卫星,星链计划旨在构建覆盖全球的低轨卫星互联网星座。该卫星于2025年10月3日发射升空,运行于近地轨道,属于星链网络扩容卫星,承担着为全球用户提供高速互联网接入服务的任务,进一步完善了星链低轨通信星座的覆盖密度与服务能力。

基本信息
目录编号:
65866
目录名称:
STARLINK-35312
国际标识:
2025-223N
轨道中心:
EARTH
卫星名称:
星链-35312
卫星全名:
星链-35312(STARLINK-35312)
卫星状态:
在轨 (已飞行208 天)
发射日期:
2025-10-03 UTC
国别 :
美国 (US)
星等 :
--
轨道信息
数据来源 国际轨道数据
星历时间: 2026-04-29T04:39:52+0800
10小时前
查看轨道信息
半长轴: 6853.27km
偏心率: 0.0001059
轨道倾角: 53.159°
近地点辐角 104.483°
升交点赤经 61.377°
平近点角 255.629°
近地点: 474.407km
远地点: 475.859km
周期: 94.104分钟
每日圈数: 15.302278
详细信息
固有亮度:
5
最大亮度:
2.5
卫星平台:
Starlink V1.0
覆盖范围:
全球
运营商:
太空探索技术公司
运营商所在国:
美国
制造商(研发单位):
太空探索技术公司
制造商所在国:
美国
使用方式:
暂无
卫星简介
Starlink 计划是 SpaceX 推出的全球卫星互联网项目,通过发射低轨道卫星,为全球尤其是偏远地区提供高速、低延迟的互联网服务。自 2019 年起,Starlink 已部署数千颗卫星,旨在缩小全球数字鸿沟,推动互联网普及。该项目还为军事、航空等行业提供通信支持,带来广泛经济效益。
2D轨道图
3D轨道图
轨道高度分析图
轨道倾角分析图
轨道综合分析图
查看轨道综合分析图